FW2547 Weather Reports


time (UTC)temp
C
wind
direction
speed
KPH
gust
KPH
rain 1hr
cm
rain 24hr
cm
rain mn
cm
humidity
%
barometer
mb
20260503020013 20 57 12.9 17.7 0.00 0.00 0.00 37 1017.1
20260503014517 20 49 11.3 19.3 0.00 0.00 0.00 37 1017.0
20260503013016 20 71 11.3 19.3 0.00 0.00 0.00 37 1016.7
20260503011510 20 52 12.9 19.3 0.00 0.00 0.00 36 1016.6
20260503010010 21 96 8.0 19.3 0.00 0.00 0.00 36 1016.6
20260503004510 20 38 12.9 19.3 0.00 0.00 0.00 36 1016.5
20260503003008 21 134 3.2 17.7 0.00 0.00 0.00 36 1016.7
20260503001508 21 202 3.2 16.1 0.00 0.00 0.00 36 1016.7
20260503000007 21 42 4.8 12.9 0.00 0.00 0.00 36 1016.6
20260502234505 21 105 4.8 12.9 0.00 0.00 0.00 37 1016.7
20260502233003 20 132 11.3 33.8 0.00 0.00 0.00 37 1016.8
20260502231502 20 39 4.8 17.7 0.00 0.00 0.00 37 1017.0
20260502230100 20 63 8.0 14.5 0.00 0.00 0.00 38 1017.1
20260502224557 20 65 9.7 17.7 0.00 0.00 0.00 39 1017.2
20260502223056 20 198 4.8 19.3 0.00 0.00 0.00 39 1017.3
20260502221553 20 55 4.8 22.5 0.00 0.00 0.00 39 1017.6
20260502220059 20 82 6.4 22.5 0.00 0.00 0.00 39 1017.9
20260502214548 18 34 12.9 24.1 0.00 0.00 0.00 41 1018.2
20260502213046 19 57 12.9 20.9 0.00 0.00 0.00 41 1018.5
20260502211548 18 10 11.3 24.1 0.00 0.00 0.00 42 1018.9
20260502210048 18 21 14.5 20.9 0.00 0.00 0.00 43 1019.2
20260502204540 17 134 4.8 25.7 0.00 0.00 0.00 43 1019.5
20260502203038 17 63 12.9 30.6 0.00 0.00 0.00 45 1019.7
20260502201537 17 34 19.3 25.7 0.00 0.00 0.00 46 1019.9
20260502200033 16 52 14.5 25.7 0.00 0.00 0.00 46 1020.2
20260502194533 16 59 22.5 25.7 0.00 0.00 0.00 46 1020.3
20260502193034 16 57 12.9 32.2 0.00 0.00 0.00 48 1020.6
20260502191530 16 36 19.3 25.7 0.00 0.00 0.00 48 1020.7
20260502190031 16 56 19.3 27.4 0.00 0.00 0.00 46 1020.9
20260502184531 16 60 9.7 22.5 0.00 0.03 0.00 45 1021.2
20260502183024 16 65 14.5 20.9 0.00 0.03 0.00 47 1021.3
20260502181521 16 103 9.7 19.3 0.00 0.03 0.00 47 1021.4
20260502163001 13 83 12.9 25.7 0.00 0.08 0.00 53 1022.3
20260502161601 13 109 12.9 22.5 0.00 0.08 0.00 53 1022.2
20260502151557 12 133 14.5 20.9 0.00 0.08 0.00 61 1022.1
20260502123014 11 109 11.3 19.3 0.00 0.08 0.00 71 1020.3
20260502121516 11 107 9.7 19.3 0.00 0.08 0.00 73 1020.0
20260502114512 11 123 19.3 25.7 0.00 0.08 0.00 74 1020.3
20260502113016 11 146 16.1 20.9 0.00 0.08 0.00 74 1020.1
20260502111509 11 145 12.9 19.3 0.00 0.08 0.00 74 1020.1
20260502110009 11 144 12.9 25.7 0.00 0.08 0.00 74 1020.1
20260502104507 11 148 14.5 22.5 0.00 0.08 0.00 74 1020.0
20260502103006 11 145 19.3 24.1 0.00 0.08 0.00 73 1019.9
20260502101503 11 163 12.9 24.1 0.00 0.08 0.00 72 1020.0
20260502100116 11 140 17.7 20.9 0.00 0.08 0.00 71 1019.9
20260502070041 12 67 11.3 20.9 0.00 0.23 0.00 66 1018.4
20260502064542 12 66 6.4 20.9 0.00 0.23 0.00 65 1018.4
20260502063039 12 60 14.5 22.5 0.00 0.23 0.00 65 1018.3
20260502061535 12 75 17.7 22.5 0.00 0.23 0.00 65 1018.2
20260502060032 12 66 19.3 25.7 0.00 0.23 0.00 65 1017.9
20260502054529 12 68 19.3 25.7 0.00 0.23 0.20 65 1018.0
20260502053029 12 61 17.7 25.7 0.00 0.23 0.20 64 1017.9
20260502051522 12 70 20.9 27.4 0.00 0.23 0.20 63 1017.8
20260502050023 12 111 11.3 22.5 0.00 0.23 0.20 62 1017.7
20260502044516 13 126 12.9 25.7 0.00 0.23 0.20 62 1017.4
20260502043017 13 77 12.9 24.1 0.00 0.23 0.20 62 1017.2
20260502041513 13 44 8.0 25.7 0.00 0.23 0.20 62 1017.1
20260502040013 13 113 8.0 25.7 0.00 0.23 0.20 62 1016.7
20260502034514 13 104 17.7 29.0 0.00 0.23 0.20 61 1016.7
20260502033010 13 98 11.3 29.0 0.00 0.23 0.20 61 1016.5
20260502031509 13 71 17.7 29.0 0.00 0.23 0.20 62 1016.6
20260502030009 13 72 24.1 33.8 0.00 0.23 0.20 62 1016.6
20260502024505 14 63 27.4 38.6 0.00 0.23 0.20 61 1016.3
20260502023006 15 57 19.3 29.0 0.00 0.23 0.20 60 1015.6
20260502021602 15 100 14.5 27.4 0.00 0.23 0.20 58 1015.0